| time (UTC) | temp C | wind direction | speed KPH | gust KPH | rain 1hr cm | rain 24hr cm | rain mn cm | humidity % | barometer mb |
| 20260504040028 | 14 | 232 | 0.0 | 0.0 | 0.00 | 0.00 | 0.00 | 40 | 1001.5 |
| 20260504034534 | 14 | 232 | 0.0 | 0.0 | 0.00 | 0.00 | 0.00 | 40 | 1001.8 |
| 20260504033023 | 14 | 232 | 0.0 | 0.0 | 0.00 | 0.00 | 0.00 | 39 | 1002.1 |
| 20260504031517 | 14 | 232 | 0.0 | 0.0 | 0.00 | 0.00 | 0.00 | 40 | 1002.2 |
| 20260504030015 | 14 | 235 | 0.0 | 0.0 | 0.00 | 0.00 | 0.00 | 40 | 1002.3 |
| 20260504024513 | 15 | 236 | 0.0 | 0.0 | 0.00 | 0.00 | 0.00 | 38 | 1002.3 |
| 20260504023011 | 15 | 236 | 0.0 | 0.0 | 0.00 | 0.00 | 0.00 | 36 | 1002.4 |
| 20260504021511 | 16 | 236 | 0.0 | 0.0 | 0.00 | 0.00 | 0.00 | 34 | 1002.5 |
| 20260504020009 | 16 | 235 | 0.0 | 0.0 | 0.00 | 0.00 | 0.00 | 33 | 1002.6 |
| 20260504014515 | 17 | 235 | 0.0 | 0.0 | 0.00 | 0.00 | 0.00 | 33 | 1002.7 |
| 20260504013007 | 17 | 236 | 0.0 | 0.0 | 0.00 | 0.00 | 0.00 | 31 | 1002.7 |
| 20260504011504 | 18 | 254 | 0.0 | 0.0 | 0.00 | 0.00 | 0.00 | 30 | 1003.0 |
| 20260504010003 | 18 | 244 | 0.0 | 0.0 | 0.00 | 0.00 | 0.00 | 29 | 1003.0 |
| 20260504004600 | 19 | 254 | 0.0 | 0.0 | 0.00 | 0.00 | 0.00 | 29 | 1003.1 |
| 20260504003058 | 19 | 264 | 0.0 | 0.0 | 0.00 | 0.00 | 0.00 | 28 | 1003.1 |
| 20260504001611 | 20 | 242 | 0.0 | 0.0 | 0.00 | 0.00 | 0.00 | 27 | 1003.2 |
| 20260504000106 | 20 | 284 | 0.0 | 0.0 | 0.00 | 0.00 | 0.00 | 27 | 1003.3 |
| 20260503234555 | 19 | 254 | 0.0 | 0.0 | 0.00 | 0.00 | 0.00 | 26 | 1003.5 |
| 20260503233056 | 20 | 255 | 0.0 | 0.0 | 0.00 | 0.00 | 0.00 | 24 | 1003.5 |
| 20260503231555 | 20 | 232 | 0.0 | 0.0 | 0.00 | 0.00 | 0.00 | 25 | 1003.5 |
| 20260503230052 | 20 | 296 | 0.0 | 0.0 | 0.00 | 0.00 | 0.00 | 25 | 1003.7 |
| 20260503224552 | 20 | 294 | 0.0 | 0.0 | 0.00 | 0.00 | 0.00 | 26 | 1003.8 |
| 20260503223048 | 20 | 315 | 0.0 | 0.0 | 0.00 | 0.00 | 0.00 | 25 | 1003.8 |
| 20260503221547 | 20 | 268 | 0.0 | 0.0 | 0.00 | 0.00 | 0.00 | 25 | 1003.9 |
| 20260503220047 | 20 | 297 | 0.0 | 0.0 | 0.00 | 0.00 | 0.00 | 25 | 1003.9 |
| 20260503214517 | 20 | 320 | 0.0 | 0.0 | 0.00 | 0.00 | 0.00 | 26 | 1004.0 |
| 20260503213016 | 20 | 227 | 0.0 | 0.0 | 0.00 | 0.00 | 0.00 | 26 | 1004.2 |
| 20260503211612 | 20 | 302 | 0.0 | 0.0 | 0.00 | 0.00 | 0.00 | 26 | 1004.3 |
| 20260503210044 | 20 | 307 | 0.0 | 0.0 | 0.00 | 0.00 | 0.00 | 24 | 1004.4 |
| 20260503204514 | 20 | 294 | 0.0 | 0.0 | 0.00 | 0.00 | 0.00 | 28 | 1004.6 |
| 20260503203021 | 19 | 335 | 0.0 | 0.0 | 0.00 | 0.00 | 0.00 | 27 | 1004.6 |
| 20260503201510 | 19 | 247 | 0.0 | 0.0 | 0.00 | 0.00 | 0.00 | 28 | 1004.8 |
| 20260503200007 | 20 | 241 | 0.0 | 0.0 | 0.00 | 0.00 | 0.00 | 29 | 1005.0 |
| 20260503194506 | 19 | 282 | 0.0 | 0.0 | 0.00 | 0.00 | 0.00 | 32 | 1005.2 |
| 20260503193001 | 18 | 296 | 0.0 | 0.0 | 0.00 | 0.00 | 0.00 | 30 | 1005.5 |
| 20260503191533 | 18 | 317 | 0.0 | 0.0 | 0.00 | 0.00 | 0.00 | 29 | 1005.8 |
| 20260503190033 | 18 | 317 | 0.0 | 0.0 | 0.00 | 0.00 | 0.00 | 29 | 1005.7 |
| 20260503184639 | 18 | 313 | 0.0 | 0.0 | 0.00 | 0.00 | 0.00 | 31 | 1005.6 |
| 20260503184501 | 18 | 300 | 0.0 | 0.0 | 0.00 | 0.00 | 0.00 | 30 | 1005.6 |
| 20260503183107 | 18 | 305 | 0.0 | 0.0 | 0.00 | 0.00 | 0.00 | 32 | 1005.7 |
| 20260503181556 | 18 | 286 | 0.0 | 0.0 | 0.00 | 0.00 | 0.00 | 30 | 1006.0 |
| 20260503180053 | 17 | 325 | 0.0 | 0.0 | 0.00 | 0.00 | 0.00 | 32 | 1006.0 |
| 20260503174609 | 18 | 274 | 0.0 | 0.0 | 0.00 | 0.00 | 0.00 | 35 | 1006.1 |
| 20260503173111 | 17 | 300 | 0.0 | 0.0 | 0.00 | 0.00 | 0.00 | 35 | 1006.2 |
| 20260503171522 | 17 | 275 | 0.0 | 0.0 | 0.00 | 0.00 | 0.00 | 39 | 1006.2 |
| 20260503100108 | 11 | 224 | 0.0 | 0.0 | 0.00 | 0.00 | 0.00 | 51 | 1003.8 |
| 20260503081554 | 13 | 193 | 0.0 | 0.0 | 0.00 | 0.00 | 0.00 | 46 | 1004.3 |
| 20260503071553 | 15 | 189 | 0.0 | 0.0 | 0.00 | 0.00 | 0.00 | 44 | 1004.9 |
| 20260503054522 | 15 | 188 | 0.0 | 0.0 | 0.00 | 0.00 | 0.00 | 47 | 1006.2 |
| 20260503053008 | 15 | 239 | 0.0 | 0.0 | 0.00 | 0.00 | 0.00 | 47 | 1006.8 |
| 20260503051506 | 14 | 206 | 0.0 | 0.0 | 0.00 | 0.00 | 0.00 | 46 | 1006.8 |
| 20260503050003 | 14 | 192 | 0.0 | 0.0 | 0.00 | 0.00 | 0.00 | 44 | 1006.8 |
| 20260503044605 | 14 | 198 | 0.0 | 0.0 | 0.00 | 0.00 | 0.00 | 45 | 1007.0 |
| 20260503043100 | 14 | 179 | 0.0 | 0.0 | 0.00 | 0.00 | 0.00 | 45 | 1007.1 |
| 20260503041558 | 14 | 193 | 0.0 | 0.0 | 0.00 | 0.00 | 0.00 | 44 | 1007.2 |